Weather History for Montgomery, AL

Change the Weather History Date:

Thursday, January 30, 2014

  Actual Average Record
Temperature  
Mean Temperature 29 °F 48 °F  
Max Temperature 46 °F 59 °F 81 °F (1950)
Min Temperature 11 °F 36 °F 5 °F (1966)
Degree Days  
Heating Degree Days 36 18  
Month to date heating degree days 751 560  
Since 1 July heating degree days 1545 1448  
Moisture  
Dew Point 15 °F    
Average Humidity 57    
Maximum Humidity 84    
Minimum Humidity 30    
Precipitation  
Precipitation 0.00 in 0.18 in 1.91 in (1878)
Month to date precipitation 2.52 4.48  
Year to date precipitation 2.52 4.48  
Snow  
Snow 0.00 in 0.00 in - ()
Month to date snowfall 0.5 0.0  
Since 1 July snowfall 0.5 0.1  
Snow Depth 0.00 in    
Sea Level Pressure  
Sea Level Pressure 30.28 in    
Wind  
Wind Speed 3 mph (ESE)    
Max Wind Speed 10 mph    
Max Gust Speed 15 mph    
Visibility 10 miles    
Events      
T = Trace of Precipitation, MM = Missing Value Source: NWS Daily Summary

Daily Weather History Graph

Daily Weather History Graph

Search for Another Location

Airport:

Trip Planner

Search our weather history database for the weather conditions in past years. The results will help you decide how hot, cold, wet, or windy it might be!

Date:

Astronomy

Jan. 30, 2014 Rise Set
Actual Time 6:40 AM CST 5:17 PM CST
Civil Twilight 6:15 AM CST 5:43 PM CST
Nautical Twilight 5:45 AM CST 6:12 PM CST
Astronomical Twilight 5:16 AM CST 6:41 PM CST
Moon 6:08 AM CST (1/30) 5:24 PM CST (1/30)
Length of Visible Light 11h 27m
Length of Day
10h 36m
Waning Crescent, 0% of the Moon is Illuminated
Jan 30
Waning Crescent
Jan 30
New
Feb 6
First Quarter
Feb 14
Full
Feb 22
Last Quarter

Hourly Weather History & Observations

Time (CST) Temp. Windchill Dew Point Humidity Pressure Visibility Wind Dir Wind Speed Gust Speed Precip Events Conditions
12:53 AM 16.0 °F - 7.0 °F 68% 30.36 in 10.0 mi Calm Calm - N/A   Clear
1:53 AM 16.0 °F - 8.1 °F 71% 30.35 in 10.0 mi Calm Calm - N/A   Clear
2:53 AM 16.0 °F - 8.1 °F 71% 30.35 in 10.0 mi Calm Calm - N/A   Clear
3:53 AM 12.9 °F - 8.1 °F 81% 30.35 in 10.0 mi Calm Calm - N/A   Clear
4:53 AM 16.0 °F - 9.0 °F 74% 30.36 in 10.0 mi Calm Calm - N/A   Clear
5:53 AM 10.9 °F - 7.0 °F 84% 30.37 in 10.0 mi Calm Calm - N/A   Clear
6:53 AM 10.9 °F - 7.0 °F 84% 30.38 in 10.0 mi Calm Calm - N/A   Clear
7:53 AM 19.9 °F - 12.0 °F 71% 30.38 in 10.0 mi Calm Calm - N/A   Clear
8:53 AM 25.0 °F 16.3 °F 12.9 °F 60% 30.37 in 10.0 mi East 8.1 mph - N/A   Clear
9:53 AM 30.9 °F 24.3 °F 12.9 °F 47% 30.35 in 10.0 mi East 6.9 mph - N/A   Clear
10:53 AM 35.1 °F 27.4 °F 16.0 °F 46% 30.34 in 10.0 mi East 10.4 mph - N/A   Clear
11:53 AM 37.0 °F 33.3 °F 18.0 °F 46% 30.31 in 10.0 mi Variable 4.6 mph - N/A   Clear
12:53 PM 39.9 °F 37.8 °F 17.1 °F 40% 30.27 in 10.0 mi Variable 3.5 mph - N/A   Clear
1:53 PM 42.1 °F 39.2 °F 14.0 °F 32% 30.24 in 10.0 mi Variable 4.6 mph - N/A   Clear
2:53 PM 44.1 °F 40.1 °F 17.1 °F 34% 30.21 in 10.0 mi East 6.9 mph - N/A   Clear
3:53 PM 45.0 °F - 18.0 °F 34% 30.24 in 10.0 mi Calm Calm - N/A   Clear
4:53 PM 42.1 °F 38.4 °F 19.9 °F 41% 30.18 in 10.0 mi East 5.8 mph - N/A   Clear
5:53 PM 36.0 °F 32.1 °F 19.9 °F 52% 30.18 in 10.0 mi East 4.6 mph - N/A   Clear
6:53 PM 35.1 °F 30.1 °F 21.0 °F 57% 30.22 in 10.0 mi SE 5.8 mph - N/A   Clear
7:53 PM 33.1 °F 26.9 °F 23.0 °F 66% 30.20 in 10.0 mi ESE 6.9 mph - N/A   Clear
8:53 PM 30.9 °F - 23.0 °F 72% 30.22 in 10.0 mi Calm Calm - N/A   Clear
9:53 PM 28.0 °F 24.2 °F 23.0 °F 81% 30.22 in 10.0 mi ESE 3.5 mph - N/A   Clear
10:53 PM 27.0 °F 20.5 °F 23.0 °F 85% 30.22 in 10.0 mi SE 5.8 mph - N/A   Clear
11:53 PM 25.0 °F 19.3 °F 21.9 °F 88% 30.21 in 10.0 mi East 4.6 mph - N/A   Clear